Algona, IA

7:52 AM CDT on April 23, 2017 (GMT -0500)
Algona Municipal

Weather History for KAXA - February, 2014

Change the Weather History Date:

Friday, February 14, 2014

  Actual Average Record
Temperature  
Mean Temperature 6 °F -  
Max Temperature 12 °F 29 °F 53 °F (2005)
Min Temperature 0 °F 15 °F -13 °F (2007)
Degree Days  
Heating Degree Days 59    
Moisture  
Dew Point 1 °F    
Average Humidity 76    
Maximum Humidity 85    
Minimum Humidity 67    
Precipitation  
Precipitation 0.00 in - - ()
Sea Level Pressure  
Sea Level Pressure 29.92 in    
Wind  
Wind Speed 13 mph (NNW)    
Max Wind Speed 21 mph    
Max Gust Speed 26 mph    
Visibility 8 miles    
Events Snow    
Averages and records for this station are not official NWS values.
T = Trace of Precipitation, MM = Missing Value Source: NWS Daily Summary

Daily Weather History Graph

Daily Weather History Graph

Search for Another Location

Airport or City:

Trip Planner

Search our weather history database for the weather conditions in past years. The results will help you decide how hot, cold, wet, or windy it might be!

Date:

Astronomy

Feb. 14, 2014 Rise Set
Actual Time 7:16 AM CST 5:47 PM CST
Civil Twilight 6:46 AM CST 6:16 PM CST
Nautical Twilight 6:13 AM CST 6:49 PM CST
Astronomical Twilight 5:40 AM CST 7:22 PM CST
Moon 5:53 PM CST (2/14) 6:42 AM CST (2/14)
Length of Visible Light 11h 29m
Length of Day
10h 30m
Full, 100% of the Moon is Illuminated
Feb 14
Full
Feb 14
Full
Feb 22
Last Quarter
Mar 1
New
Mar 8
First Quarter

Hourly Weather History & Observations

Time (CST) Temp. Windchill Dew Point Humidity Pressure Visibility Wind Dir Wind Speed Gust Speed Precip Events Conditions
12:15 AM 10.4 °F -4.8 °F 3.2 °F 73% 29.74 in 10.0 mi North 12.7 mph - N/A   Overcast
12:35 AM 8.6 °F -7.7 °F 3.2 °F 79% 29.74 in 10.0 mi North 13.8 mph - N/A   Mostly Cloudy
12:55 AM 8.6 °F -5.5 °F 3.2 °F 79% 29.74 in 10.0 mi North 10.4 mph - N/A   Overcast
1:15 AM 8.6 °F -7.7 °F 1.4 °F 73% 29.72 in 10.0 mi North 13.8 mph - N/A   Overcast
1:35 AM 8.6 °F -10.0 °F 1.4 °F 73% 29.70 in 10.0 mi NNE 18.4 mph - N/A   Overcast
1:55 AM 8.6 °F -11.0 °F 1.4 °F 73% 29.69 in 10.0 mi NNE 20.7 mph - N/A   Overcast
2:15 AM 8.6 °F -7.7 °F 1.4 °F 73% 29.69 in 10.0 mi NNE 13.8 mph 21.9 mph N/A   Overcast
2:30 AM 8.6 °F -8.3 °F 1.4 °F 73% 29.70 in 10.0 mi NNE 15.0 mph - N/A   Overcast
2:55 AM 8.6 °F -1.3 °F 1.4 °F 73% 29.73 in 10.0 mi North 5.8 mph - N/A   Overcast
3:15 AM 8.6 °F -2.6 °F 1.4 °F 73% 29.75 in 10.0 mi NNW 6.9 mph - N/A Snow Light Snow
3:35 AM 8.6 °F -4.7 °F 3.2 °F 79% 29.76 in 4.0 mi NW 9.2 mph - N/A Snow Light Snow
3:55 AM 8.6 °F -4.7 °F 3.2 °F 79% 29.76 in 1.5 mi NNW 9.2 mph - N/A Snow Light Snow
4:15 AM 8.6 °F -7.7 °F 3.2 °F 79% 29.77 in 2.0 mi NNW 13.8 mph - N/A Snow Light Snow
4:35 AM 8.6 °F -7.0 °F 3.2 °F 79% 29.77 in 3.0 mi NNW 12.7 mph - N/A Snow Light Snow
4:55 AM 8.6 °F -8.3 °F 3.2 °F 79% 29.78 in 3.0 mi NNW 15.0 mph 20.7 mph N/A Snow Light Snow
5:15 AM 6.8 °F -10.0 °F 3.2 °F 85% 29.78 in 3.0 mi North 13.8 mph 21.9 mph N/A Snow Light Snow
5:35 AM 6.8 °F -9.3 °F 1.4 °F 79% 29.79 in 6.0 mi North 12.7 mph 19.6 mph N/A Snow Light Snow
5:55 AM 6.8 °F -10.7 °F 1.4 °F 79% 29.81 in 10.0 mi North 15.0 mph - N/A Snow Light Snow
6:15 AM 6.8 °F -8.6 °F 1.4 °F 79% 29.83 in 5.0 mi NNW 11.5 mph 18.4 mph N/A   Haze
6:35 AM 6.8 °F -10.7 °F 1.4 °F 79% 29.83 in 4.0 mi North 15.0 mph - N/A Snow Light Snow
6:55 AM 6.8 °F -10.0 °F 1.4 °F 79% 29.84 in 7.0 mi NNW 13.8 mph - N/A Snow Light Snow
7:15 AM 6.8 °F -10.0 °F 1.4 °F 79% 29.85 in 1.5 mi North 13.8 mph - N/A Snow Light Snow
7:35 AM 6.8 °F -10.7 °F 1.4 °F 79% 29.85 in 0.8 mi North 15.0 mph - N/A Snow Light Snow
7:55 AM 6.8 °F -10.0 °F 1.4 °F 79% 29.86 in 1.0 mi North 13.8 mph - N/A Snow Light Snow
8:15 AM 6.8 °F -12.4 °F 1.4 °F 79% 29.87 in 4.0 mi North 18.4 mph 24.2 mph N/A   Haze
8:35 AM 6.8 °F -12.4 °F 1.4 °F 79% 29.88 in 1.2 mi North 18.4 mph 26.5 mph N/A Snow Light Snow
8:55 AM 6.8 °F -11.8 °F 1.4 °F 79% 29.89 in 5.0 mi North 17.3 mph 24.2 mph N/A   Haze
9:15 AM 5.0 °F -14.7 °F -0.4 °F 78% 29.90 in 2.0 mi North 18.4 mph - N/A   Haze
9:35 AM 6.8 °F -11.8 °F -0.4 °F 72% 29.91 in 7.0 mi North 17.3 mph - N/A   Overcast
9:55 AM 6.8 °F -12.4 °F -0.4 °F 72% 29.92 in 7.0 mi North 18.4 mph 24.2 mph N/A   Mostly Cloudy
10:15 AM 6.8 °F -11.3 °F -0.4 °F 72% 29.93 in 6.0 mi North 16.1 mph 23.0 mph N/A   Haze
10:35 AM 6.8 °F -11.8 °F -0.4 °F 72% 29.95 in 9.0 mi NNW 17.3 mph - N/A   Mostly Cloudy
10:55 AM 6.8 °F -11.3 °F -0.4 °F 72% 29.96 in 5.0 mi North 16.1 mph 23.0 mph N/A   Haze
11:15 AM 6.8 °F -11.3 °F -0.4 °F 72% 29.96 in 4.0 mi North 16.1 mph - N/A   Haze
11:35 AM 6.8 °F -10.0 °F -0.4 °F 72% 29.97 in 5.0 mi NNW 13.8 mph 21.9 mph N/A   Haze
11:55 AM 6.8 °F -10.7 °F -0.4 °F 72% 29.97 in 9.0 mi NNW 15.0 mph - N/A   Mostly Cloudy
12:15 PM 6.8 °F -10.0 °F -0.4 °F 72% 29.97 in 6.0 mi NNW 13.8 mph - N/A   Haze
12:35 PM 6.8 °F -10.0 °F -0.4 °F 72% 29.97 in 10.0 mi NNW 13.8 mph - N/A   Mostly Cloudy
12:55 PM 8.6 °F -7.7 °F 1.4 °F 73% 29.98 in 9.0 mi NNW 13.8 mph - N/A   Mostly Cloudy
1:15 PM 8.6 °F -7.7 °F 1.4 °F 73% 29.97 in 9.0 mi NNW 13.8 mph 19.6 mph N/A   Mostly Cloudy
1:35 PM 10.4 °F -4.1 °F 3.2 °F 73% 29.98 in 10.0 mi NW 11.5 mph - N/A   Scattered Clouds
1:55 PM 10.4 °F -4.8 °F 3.2 °F 73% 29.99 in 10.0 mi NW 12.7 mph - N/A   Scattered Clouds
2:15 PM 10.4 °F -5.4 °F 3.2 °F 73% 29.99 in 10.0 mi NNW 13.8 mph - N/A   Scattered Clouds
2:35 PM 10.4 °F -6.0 °F 3.2 °F 73% 29.99 in 10.0 mi NNW 15.0 mph - N/A   Mostly Cloudy
2:55 PM 12.2 °F -3.7 °F 3.2 °F 67% 30.00 in 10.0 mi NNW 15.0 mph - N/A   Scattered Clouds
3:15 PM 12.2 °F -4.3 °F 5.0 °F 73% 30.00 in 10.0 mi NNW 16.1 mph - N/A   Mostly Cloudy
3:35 PM 12.2 °F -4.3 °F 5.0 °F 73% 30.00 in 10.0 mi NNW 16.1 mph - N/A   Partly Cloudy
3:55 PM 12.2 °F -4.3 °F 5.0 °F 73% 30.00 in 10.0 mi NNW 16.1 mph - N/A   Clear
4:15 PM 12.2 °F -3.1 °F 3.2 °F 67% 30.00 in 10.0 mi NNW 13.8 mph 21.9 mph N/A   Clear
4:35 PM 12.2 °F -2.5 °F 3.2 °F 67% 30.01 in 10.0 mi NNW 12.7 mph - N/A   Clear
4:55 PM 10.4 °F -4.8 °F 3.2 °F 73% 30.02 in 10.0 mi NW 12.7 mph 18.4 mph N/A   Clear
5:15 PM 10.4 °F -3.3 °F 3.2 °F 73% 30.03 in 10.0 mi NW 10.4 mph 16.1 mph N/A   Clear
5:35 PM 10.4 °F -3.3 °F 3.2 °F 73% 30.03 in 10.0 mi NW 10.4 mph 16.1 mph N/A   Clear
5:55 PM 8.6 °F -2.6 °F 3.2 °F 79% 30.03 in 10.0 mi NW 6.9 mph - N/A   Clear
6:15 PM 8.6 °F -1.3 °F 1.4 °F 73% 30.03 in 10.0 mi NW 5.8 mph - N/A   Clear
6:35 PM 6.8 °F -2.0 °F 1.4 °F 79% 30.03 in 10.0 mi NW 4.6 mph - N/A   Clear
6:55 PM 3.2 °F -9.1 °F -2.2 °F 78% 30.03 in 10.0 mi West 6.9 mph - N/A   Clear
7:15 PM 1.4 °F -9.9 °F -2.2 °F 85% 30.03 in 10.0 mi West 5.8 mph - N/A   Clear
7:35 PM 3.2 °F -11.3 °F -2.2 °F 78% 30.05 in 10.0 mi West 9.2 mph - N/A   Clear
7:55 PM 3.2 °F -10.3 °F -2.2 °F 78% 30.05 in 10.0 mi West 8.1 mph - N/A   Clear
8:15 PM 3.2 °F -11.3 °F -2.2 °F 78% 30.05 in 10.0 mi WNW 9.2 mph - N/A   Clear
8:35 PM 3.2 °F -7.8 °F -2.2 °F 78% 30.03 in 10.0 mi WNW 5.8 mph - N/A   Clear
8:50 PM 3.2 °F -6.2 °F -2.2 °F 78% 30.04 in 10.0 mi WNW 4.6 mph - N/A   Clear
9:15 PM 3.2 °F -7.8 °F -2.2 °F 78% 30.05 in 10.0 mi WNW 5.8 mph - N/A   Clear
9:35 PM -0.4 °F -13.4 °F -5.8 °F 78% 30.06 in 10.0 mi West 6.9 mph - N/A   Clear
9:55 PM 1.4 °F -12.5 °F -4.0 °F 78% 30.06 in 10.0 mi West 8.1 mph - N/A   Clear
10:15 PM 1.4 °F -9.9 °F -4.0 °F 78% 30.04 in 10.0 mi WNW 5.8 mph - N/A   Clear
10:35 PM 1.4 °F -9.9 °F -4.0 °F 78% 30.03 in 10.0 mi WNW 5.8 mph - N/A   Clear
10:55 PM 1.4 °F -11.3 °F -4.0 °F 78% 30.04 in 10.0 mi WNW 6.9 mph - N/A   Clear
11:15 PM -0.4 °F -12.0 °F -5.8 °F 78% 30.04 in 10.0 mi WNW 5.8 mph - N/A   Clear
11:35 PM 1.4 °F -9.9 °F -4.0 °F 78% 30.02 in 10.0 mi NW 5.8 mph - N/A   Clear
11:55 PM -0.4 °F - -5.8 °F 78% 30.02 in 10.0 mi Calm Calm - N/A   Clear